Regional Weather Roundup
Issued by NWS

Home | Current Version | Previous Version | Graphics & Text | Print | Product List | Glossary On
Versions: 1 2 3 4 5 6 7 8 9 10 11 12 13 14 15 16 17 18 19 20 21 22 23 24 25 26 27 28 29 30 31 32 33 34 35 36 37 38 39 40 41 42 43 44 45 46 47 48 49 50
000
ASUS43 KLMK 231010
RWRKY
KENTUCKY REGIONAL WEATHER ROUNDUP
NATIONAL WEATHER SERVICE LOUISVILLE KY
600 AM EDT SAT MAY 23 2015

NOTE "FAIR" INDICATES FEW OR NO CLOUDS BELOW 12,000 FEET
WITH NO SIGNIFICANT WEATHER AND/OR OBSTRUCTIONS TO VISIBILITY.

KYZ001>023-026-027-061>063-070>075-231100-
WESTERN AND SOUTH CENTRAL KENTUCKY

CITY           SKY/WX    TMP DP  RH WIND       PRES   REMARKS
PADUCAH        CLOUDY    59  55  87 CALM      30.30R
HENDERSON      CLOUDY    57  54  88 CALM      30.31R
OWENSBORO      CLOUDY    58  55  89 CALM      30.32R
HOPKINSVILLE   MOCLDY    58  50  77 N2        30.31R
BOWLING GREEN  MOCLDY    55  51  86 CALM      30.33R
GLASGOW        CLOUDY    52  52 100 CALM      30.33R
$$

KYZ024-025-028>034-038-045-046-053-231100-
NORTH CENTRAL KENTUCKY

CITY           SKY/WX    TMP DP  RH WIND       PRES   REMARKS
LOUISVILLE/SDF MOCLDY    57  51  80 E3        30.33R
LOUISVILLE/LOU MOCLDY    53  49  86 CALM      30.33R
FORT KNOX      CLOUDY    53  51  93 CALM      30.31R
$$

KYZ035>037-039>044-047>052-055>060-089>105-231100-
NORTHEAST KENTUCKY

CITY           SKY/WX    TMP DP  RH WIND       PRES   REMARKS
LEXINGTON      PTCLDY    52  46  80 SE3       30.34R
COVINGTON      CLOUDY    56  49  77 N5        30.33R
FRANKFORT      MOCLDY    50  46  86 CALM      30.33R
$$

KYZ054-064>069-076>088-106>120-231100-
SOUTHEAST KENTUCKY

CITY           SKY/WX    TMP DP  RH WIND       PRES   REMARKS
JACKSON        PTCLDY    51  47  86 SE3       30.35R
LONDON         PTCLDY    48  43  82 CALM      30.34R
SOMERSET       PTCLDY    46  46 100 CALM      30.35R
MIDDLESBORO    MOCLDY    46  46  97 CALM      30.38R
MONTICELLO     PTSUNNY   50  50 100 CALM      30.36R
$$




USA.gov is the U.S. government's official web portal to all federal, state and local government web resources and services.